TimePDT,TemperatureF,Dew PointF,Humidity,Sea Level PressureIn,VisibilityMPH,Wind Direction,Wind SpeedMPH,Gust SpeedMPH,PrecipitationIn,Events,Conditions,WindDirDegrees,DateUTC
12:52 AM,46.0,39.9,79,29.77,10.0,North,4.6,-,N/A,,Overcast,10,2013-05-06 07:52:00
1:52 AM,44.1,39.9,85,29.77,10.0,Calm,Calm,-,0.00,,Overcast,0,2013-05-06 08:52:00
2:52 AM,43.0,39.9,89,29.77,10.0,WNW,3.5,-,0.01,,Overcast,290,2013-05-06 09:52:00
3:10 AM,42.8,39.2,87,29.90,10.0,Calm,Calm,-,N/A,,Overcast,0,2013-05-06 10:10:00
3:19 AM,42.8,39.2,87,29.90,10.0,Calm,Calm,-,0.00,Rain,Light Rain,0,2013-05-06 10:19:00
3:52 AM,42.1,39.9,92,29.79,10.0,Calm,Calm,-,0.01,Rain,Light Rain,0,2013-05-06 10:52:00
4:23 AM,42.8,39.2,87,29.90,5.0,Calm,Calm,-,0.06,Rain,Light Rain,0,2013-05-06 11:23:00
4:33 AM,42.8,39.2,87,29.90,5.0,Calm,Calm,-,0.07,Rain,Light Rain,0,2013-05-06 11:33:00
4:52 AM,42.1,41.0,96,29.79,5.0,Calm,Calm,-,0.09,Rain,Light Rain,0,2013-05-06 11:52:00
5:05 AM,41.0,41.0,100,29.89,4.0,Calm,Calm,-,0.01,Rain,Light Rain,0,2013-05-06 12:05:00
5:09 AM,41.0,41.0,100,29.89,2.5,Calm,Calm,-,0.01,Rain,Light Rain,0,2013-05-06 12:09:00
5:21 AM,41.0,41.0,100,29.89,4.0,Calm,Calm,-,0.01,Rain,Light Rain,0,2013-05-06 12:21:00
5:27 AM,41.0,41.0,100,29.89,2.5,SSW,3.5,-,0.01,Rain,Light Rain,210,2013-05-06 12:27:00
5:31 AM,41.0,41.0,100,29.89,1.2,SW,3.5,-,0.01,Rain,Light Rain,220,2013-05-06 12:31:00
5:40 AM,41.0,41.0,100,29.89,0.5,SW,3.5,-,0.02,Fog-Rain,Light Rain,230,2013-05-06 12:40:00
5:47 AM,41.0,41.0,100,29.90,0.2,SW,4.6,-,0.02,Fog-Rain,Light Rain,220,2013-05-06 12:47:00
5:52 AM,41.0,41.0,100,29.81,0.2,SSW,3.5,-,0.02,Fog-Rain,Light Rain,200,2013-05-06 12:52:00
6:05 AM,41.0,39.2,93,29.90,0.5,SSW,4.6,-,0.00,Fog-Rain,Light Rain,200,2013-05-06 13:05:00
6:27 AM,39.2,39.2,100,29.91,1.8,South,3.5,-,0.01,Rain,Light Rain,190,2013-05-06 13:27:00
6:34 AM,39.2,39.2,100,29.91,4.0,Calm,Calm,-,0.02,Rain,Light Rain,0,2013-05-06 13:34:00
6:37 AM,41.0,39.2,93,29.91,1.5,South,3.5,-,0.02,Rain,Light Rain,180,2013-05-06 13:37:00
6:40 AM,41.0,39.2,93,29.91,0.5,South,3.5,-,0.02,Fog-Rain,Light Rain,180,2013-05-06 13:40:00
6:48 AM,41.0,39.9,96,29.82,0.2,South,4.6,-,0.03,Fog-Rain,Light Rain,180,2013-05-06 13:48:00
7:01 AM,41.0,39.2,93,29.92,0.2,South,5.8,-,0.02,Fog-Rain,Rain,170,2013-05-06 14:01:00
7:16 AM,41.0,39.2,93,29.92,0.8,Calm,Calm,-,0.05,Rain,Rain,0,2013-05-06 14:16:00
7:31 AM,39.2,39.2,100,29.92,1.2,South,3.5,-,0.11,Rain,Rain,190,2013-05-06 14:31:00
7:37 AM,39.2,39.2,100,29.92,2.0,South,3.5,-,0.13,Rain,Rain,190,2013-05-06 14:37:00
7:52 AM,41.0,41.0,100,29.84,5.0,Calm,Calm,-,0.15,Rain,Light Rain,0,2013-05-06 14:52:00
7:58 AM,41.0,39.2,93,29.93,7.0,Calm,Calm,-,0.01,Rain,Light Rain,0,2013-05-06 14:58:00
8:32 AM,41.0,39.2,93,29.93,10.0,SSW,3.5,-,0.02,Rain,Light Rain,210,2013-05-06 15:32:00
8:52 AM,39.9,39.0,97,29.86,4.0,South,6.9,-,0.04,Rain,Light Rain,190,2013-05-06 15:52:00
9:10 AM,39.2,39.2,100,29.95,4.0,South,5.8,-,0.03,Rain,Light Rain,190,2013-05-06 16:10:00
9:52 AM,39.0,39.0,100,29.89,5.0,South,6.9,-,0.09,Rain,Rain,170,2013-05-06 16:52:00
10:10 AM,37.4,37.4,100,29.97,5.0,South,8.1,-,0.03,Rain,Rain,180,2013-05-06 17:10:00
10:49 AM,39.2,37.4,93,29.98,7.0,Calm,Calm,-,0.09,Rain,Light Rain,0,2013-05-06 17:49:00
10:52 AM,39.0,37.9,96,29.91,8.0,Calm,Calm,-,0.09,Rain,Light Rain,0,2013-05-06 17:52:00
11:17 AM,39.2,39.2,100,29.98,10.0,Calm,Calm,-,0.02,Rain,Light Rain,0,2013-05-06 18:17:00
11:52 AM,41.0,39.0,93,29.91,10.0,Calm,Calm,-,0.03,Rain,Light Rain,0,2013-05-06 18:52:00
12:04 PM,42.8,39.2,87,29.98,10.0,Calm,Calm,-,0.00,Rain,Light Rain,0,2013-05-06 19:04:00
12:13 PM,42.8,39.2,87,29.98,10.0,Calm,Calm,-,0.01,Rain,Light Rain,0,2013-05-06 19:13:00
12:38 PM,46.4,41.0,81,29.97,10.0,Calm,Calm,-,0.01,,Overcast,0,2013-05-06 19:38:00
12:52 PM,45.0,39.9,82,29.88,10.0,Variable,4.6,-,0.01,,Overcast,0,2013-05-06 19:52:00
1:52 PM,46.0,41.0,83,29.89,10.0,WNW,3.5,-,N/A,,Overcast,300,2013-05-06 20:52:00
2:09 PM,46.4,41.0,81,29.97,10.0,WNW,5.8,-,N/A,,Overcast,300,2013-05-06 21:09:00
2:52 PM,45.0,41.0,86,29.90,10.0,SW,4.6,-,N/A,,Overcast,230,2013-05-06 21:52:00
3:52 PM,45.0,42.1,90,29.89,10.0,WSW,4.6,-,N/A,,Overcast,240,2013-05-06 22:52:00
4:20 PM,44.6,42.8,93,29.96,10.0,Calm,Calm,-,0.00,Rain,Light Rain,0,2013-05-06 23:20:00
4:28 PM,44.6,42.8,93,29.96,10.0,SSW,3.5,-,0.00,Rain,Light Rain,200,2013-05-06 23:28:00
4:35 PM,44.6,42.8,93,29.96,8.0,South,5.8,-,0.00,Rain,Light Rain,170,2013-05-06 23:35:00
4:46 PM,44.6,42.8,93,29.96,10.0,South,6.9,-,0.01,Rain,Light Rain,180,2013-05-06 23:46:00
4:52 PM,45.0,43.0,93,29.89,10.0,South,6.9,-,0.01,,Overcast,170,2013-05-06 23:52:00
5:41 PM,44.6,42.8,93,29.97,9.0,Calm,Calm,-,0.00,,Overcast,0,2013-05-07 00:41:00
5:52 PM,44.1,41.0,89,29.90,10.0,Calm,Calm,-,0.00,,Overcast,0,2013-05-07 00:52:00
6:52 PM,45.0,41.0,86,29.89,10.0,Calm,Calm,-,N/A,,Overcast,0,2013-05-07 01:52:00
7:52 PM,44.1,37.9,79,29.90,10.0,ENE,4.6,-,N/A,,Overcast,60,2013-05-07 02:52:00
8:52 PM,44.1,37.9,79,29.92,10.0,Calm,Calm,-,N/A,,Overcast,0,2013-05-07 03:52:00
9:52 PM,44.1,37.9,79,29.94,10.0,Calm,Calm,-,N/A,,Overcast,0,2013-05-07 04:52:00
10:52 PM,42.1,39.0,89,29.96,10.0,Calm,Calm,-,0.00,Rain,Light Rain,0,2013-05-07 05:52:00
11:06 PM,42.8,39.2,87,30.01,10.0,Calm,Calm,-,0.01,Rain,Light Rain,0,2013-05-07 06:06:00
11:52 PM,43.0,37.9,82,29.95,10.0,Variable,3.5,-,0.02,,Overcast,0,2013-05-07 06:52:00